User: anonymous   Login
Location: Irma
(52.9170°N, 111.2330°W)
Time: 13:22:46
(UTC-06:00)
Language:

deb Chang Zheng 4 - Orbit

View from above orbital plane
View from above orbital plane
View from above satellite
View from above satellite

Ground track
Ground track

The orbit data is extracted from the following two-line orbital elements,

1 20847U 90081K   17178.84846359 +.00001534 +00000-0 +20790-3 0  9994
2 20847 098.5307 063.6595 0018761 035.6273 324.6185 14.80442739407178
Epoch (UTC): 27 June 2017 20:21:47
Eccentricity: 0.0018761
inclination: 98.5307°
perigee height: 615 km
apogee height: 641 km
right ascension of ascending node: 63.6595°
argument of perigee: 35.6273°
revolutions per day: 14.80442739
mean anomaly at epoch: 324.6185°
orbit number at epoch: 40717

The dashed part of the orbit path shows where the satellite is in the earth's shadow,  

DLR